Weather Roundup
Issued by NWS Springfield, MO

Home | Current Version | Previous Version | Text Only | Print | Product List | Glossary On
Versions: 1 2 3 4 5 6 7 8 9 10 11 12 13 14 15 16 17 18 19 20 21 22 23 24 25 26 27 28 29 30 31 32 33 34 35 36 37 38 39 40 41 42 43 44 45 46 47 48 49 50
000
NZUS99 KSGF 010007
HRRSGF

HOURLY WEATHER
NATIONAL WEATHER SERVICE SPRINGFIELD MO
700 PM CDT SAT APR 30 2016

......SGF CWA......

CITY           SKY/WX    TMP DP  RH WIND       PRES   REMARKS
SPRINGFIELD    SUNNY     69  54  58 W13       29.76R
6HR MIN TEMP:  69; 6HR MAX TEMP:  75;

JOPLIN         SUNNY     66  52  60 W6        29.78R
6HR MIN TEMP:  66; 6HR MAX TEMP:  71;

WEST PLAINS    CLOUDY    71  60  68 SE5       29.78R
6HR MIN TEMP:  67; 6HR MAX TEMP:  75;

ROLLA          CLOUDY    71  60  68 W9        29.72S
6HR MIN TEMP:  66; 6HR MAX TEMP:  75; 6HR PCP:  0.10;

OSAGE BEACH    SUNNY     73  52  46 W7        29.74S
BRANSON        PTSUNNY   68  59  73 W6        29.78R

......SURROUNDING SGF CWA......

CITY           SKY/WX    TMP DP  RH WIND       PRES   REMARKS
CHANUTE        SUNNY     65  45  48 W12       29.78R
PARSONS        SUNNY     66  50  56 W9        29.79S
COFFEYVILLE    SUNNY     66  49  54 NW10      29.79R
EMPORIA        MOSUNNY   59  46  62 W12G18    29.79R
GROVE OK       SUNNY     68  54  60 NW6       29.80R
ROGERS AR      MOSUNNY   65  59  81 W6        29.80R
SILOAM SPRINGS MOSUNNY   64  52  63 W6        29.81R
HARRISON AR    MOSUNNY   71  60  68 W9        29.76R
NEAR YELLVILLE CLOUDY   N/A N/A N/A SW3       29.73S

......KANSAS AND MISSOURI......

CITY           SKY/WX    TMP DP  RH WIND       PRES   REMARKS
KANSAS CTY INT PTSUNNY   64  50  60 NW9       29.77R
DOWNTOWN KC    MOSUNNY   67  48  50 W7        29.75R
COLUMBIA       SUNNY     70  55  59 NW13      29.75R
SEDALIA        MOSUNNY   68  53  58 W9        29.77R
ST JOSEPH      CLOUDY    62  48  60 W5        29.77R
ST LOUIS       MOCLDY    72  62  71 SE10      29.75R THUNDER
SPIRIT OF STL  TSTM      64  61  88 CALM      29.74R
KIRKSVILLE     MOSUNNY   63  56  78 N12       29.77R
WICHITA        MOSUNNY   60  40  47 W17       29.83R
TOPEKA         MOSUNNY   63  47  55 W8        29.76R
OLATHE         SUNNY     63  46  54 W7        29.77R

......TENNESSEE......

CITY           SKY/WX    TMP DP  RH WIND       PRES   REMARKS
MEMPHIS        MOCLDY    74  64  71 CALM      29.81R
NASHVILLE      CLOUDY    70  66  87 SE6       29.86F

......ARKANSAS.......

CITY           SKY/WX    TMP DP  RH WIND       PRES   REMARKS
FAYETTEVILLE   MOSUNNY   66  61  84 W8        29.78S
FT SMITH       CLOUDY    70  59  68 W10       29.76R
LITTLE ROCK    PTCLDY    78  63  59 S7        29.75S

......OKLAHOMA.......

CITY           SKY/WX    TMP DP  RH WIND       PRES   REMARKS
TULSA          SUNNY     68  51  54 NW12      29.78R
PONCA CITY     SUNNY     64  44  48 NW10      29.82R
MCALESTER      CLOUDY    70  61  73 VRB3      29.79R
OKLAHOMA CITY  SUNNY     69  45  41 N15G24    29.80R

......IOWA............

CITY           SKY/WX    TMP DP  RH WIND       PRES   REMARKS
DES MOINES     DRIZZLE   50  46  86 E12G20    29.84R FOG
QUAD CITIES    CLOUDY    47  44  90 NE14G23   29.86S FOG

......ILLINOIS........

CITY           SKY/WX    TMP DP  RH WIND       PRES   REMARKS
QUINCY         PTSUNNY   66  63  90 N10       29.75R
CHICAGO        LGT RAIN  45  43  93 NE16G26   29.92F FOG




USA.gov is the U.S. government's official web portal to all federal, state and local government web resources and services.